Powrót do katalogu

ATLAS 5 CENTAUR DEB

AktywnyHEO
NORAD 44674·DEBRIS·🇺🇸 United States

Wystrzelony Oct 17, 2018 z Cape Canaveral Space Force Station

Loading…

Następne Przeloty (najbliższe 24 godziny)

TLE

Starzejące sięSource: Space-Track

Epoka: Aug 29, 2026, 14:35 UTC

1 44674U 18079AL  26241.60814329 -.00000112  00000-0  00000-0 0  9993
2 44674  13.1559  28.6768 4356901 350.7195   3.1785  1.93746291 50962

Śledź ATLAS 5 CENTAUR DEB w czasie rzeczywistym z AllMySat

Download on the App Store